Find Kazsat-2

NORAD ID: 37749 Int'l Des: 2011-035 Owner: KAZK Country: KZ operational
HEOCIRCULARGSOGEO

リアルタイム位置

3D地球を読み込み中...

Kazsat-2について

説明を読み込み中...

次回通過

Passes for default location (London). Set your location on the main map for personalized predictions.

高度履歴

Loading altitude history...

軌道要素

1 37749U 11035B 26104.59191602 -.00000194 00000-0 00000-0 0 9991
2 37749 0.0349 298.5690 0000942 157.6018 46.2084 1.00273585 52765
Epoch: Apr 14, 2026 • Age: 6 hours

現在のステータス

高度 35788.1 km
速度 3.07 km/s
衛星直下点 -0.02°S, 86.53°E
打ち上げ日 Jul 15, 2011
運用期間 14.7 years
タイプ other

技術仕様

分類 Payload
質量 1272.00 kg
乾燥質量 900.00 kg
総質量 1272.00 kg
長さ 3.00 m
直径 2.00 m
スパン 7.00 m
形状 Box + 2 Pan
製造者 KHRR
バスタイプ Yakhta
フェーズステータス In Orbit
所有者/国 KAZK/KZ

Most Searched